Temperature
16 16 16 16 16 16 15 15 15 15 15 15 15 15 16 16 16 16 16 16 16 16 16 16 16 16 16 16 16 16 15 15 15 15 15 15 15 15
16 16 16 16 16 15 15 15 15 15 15 15 15 15 15 15 15 15 16 16 16 16 16 16 16 16 15 16 15 15 15 15 15 15 15 15 15 15
16 16 15 15 15 15 15 15 15 15 14 15 15 15 15 15 15 15 15 15 15 15 15 15 15 15 15 15 15 15 15 15 15 15 15 15 15 15
15 15 15 15 15 15 15 15 15 14 14 14 14 15 15 15 15 15 15 15 15 15 15 15 15 15 15 15 15 15 15 15 15 15 14 14 14 14
15 15 15 15 14 14 14 14 14 14 14 14 14 14 14 14 14 14 14 15 15 15 15 15 14 14 15 15 15 15 15 14 14 14 14 14 14 14
15 15 15 14 14 14 14 14 14 14 14 14 14 14 14 14 14 14 14 14 14 14 14 14 14 14 14 14 14 14 14 14 14 14 14 14 14 14
15 15 14 14 14 14 14 14 13 13 13 13 13 14 14 14 14 14 14 14 14 14 14 14 14 14 14 14 14 14 14 14 13 13 13 13 13 13
14 14 14 14 14 14 14 14 13 13 13 13 13 13 13 13 13 13 13 13 13 13 13 13 13 13 13 13 13 13 13 13 13 13 13 13 13 13
14 14 14 14 14 13 13 13 13 13 13 13 13 13 13 13 13 13 13 13 13 13 13 13 13 13 13 13 13 13 13 13 13 13 13 13 12 12
14 14 14 13 13 13 13 13 13 13 13 13 13 13 13 13 13 13 12 12 12 12 12 12 13 13 13 13 13 13 13 13 13 12 12 12 12 12
13 13 13 13 13 13 13 13 13 13 13 13 13 13 13 12 12 12 12 12 12 12 12 12 12 12 13 13 13 12 12 12 12 12 12 12 12 12
13 13 13 13 13 12 12 12 12 13 12 12 12 12 12 12 12 12 12 12 12 12 12 12 12 11 12 12 12 12 12 12 12 12 12 12 11 11
13 13 13 13 12 12 12 12 12 12 12 12 12 12 12 12 12 12 12 12 11 11 11 11 11 11 11 11 12 12 12 11 11 11 11 11 11 11
12 12 12 12 12 12 12 12 12 12 12 12 12 12 12 12 12 12 12 12 11 11 11 11 11 11 11 11 11 11 11 11 11 11 11 11 11 11
12 12 12 12 12 12 12 12 12 11 11 12 12 12 11 12 11 11 11 11 11 11 11 11 11 11 11 10 10 11 11 11 11 11 11 10 10 10
12 12 12 12 12 12 12 11 11 11 11 11 11 11 11 11 11 11 11 11 11 11 11 11 11 10 10 10 10 11 11 10 10 10 10 10 10 10
12 12 12 12 11 11 11 11 11 11 11 11 11 11 11 11 11 11 11 11 10 11 11 11 11 10 10 10 10 10 10 10 10 10 10 10 10 10
11 11 11 11 11 11 11 11 11 11 11 11 10 10 10 10 10 10 10 10 10 10 10 10 10 10 10 10 10 10 10 10 9 9 9 9 9 9
11 11 11 10 10 10 11 11 11 11 10 10 10 10 10 10 10 10 10 10 10 10 10 10 10 10 9 9 9 10 9 9 9 9 9 9 9 9
11 10 10 10 10 10 10 10 10 10 10 10 10 10 10 10 10 10 10 10 10 10 10 10 9 9 9 9 9 9 9 9 9 9 9 9 9 9
10 10 10 10 10 10 10 10 10 10 10 10 10 9 9 9 9 9 9 9 9 9 9 9 9 9 9 9 8 8 9 8 8 8 8 8 8 9
10 10 10 10 10 9 9 9 9 9 9 9 9 9 9 9 9 9 9 9 9 9 9 9 9 9 9 8 8 8 8 8 8 8 8 8 8 8
9 9 9 9 9 9 9 9 9 9 9 9 9 9 9 9 9 9 9 9 8 8 8 8 8 8 8 8 8 8 8 8 8 8 8 8 8 8
Wind_Speed
2 2 2 2 2 2 2 3 2 3 3 2 2 3 4 4 5 5 6 6 6 6 7 7 8 8 8 9 9 9 9 9 9 9 10 11 11 10
2 2 2 2 2 2 2 2 3 3 3 2 3 4 4 4 5 5 6 6 6 7 7 7 7 7 7 8 9 9 9 9 9 9 10 10 11 11
2 2 2 2 2 2 2 2 2 3 3 3 2 3 3 4 4 4 4 5 5 6 6 6 7 7 7 7 8 9 9 9 10 10 10 10 10 10
2 2 2 2 2 2 2 2 2 3 3 4 3 2 3 3 3 3 3 3 4 4 5 5 5 6 6 6 7 8 9 10 10 10 10 11 11 11
2 2 2 2 2 2 2 2 3 3 3 3 4 2 2 2 3 3 3 3 4 4 4 4 5 5 6 6 6 7 8 8 8 9 9 9 10 10
3 2 2 2 3 3 3 3 3 3 3 3 3 3 3 2 2 3 4 3 3 3 4 4 5 5 5 5 6 6 7 7 8 8 8 8 9 8
3 3 3 3 4 4 3 3 3 3 3 3 4 3 3 2 3 2 3 4 3 2 3 3 3 3 3 4 5 6 6 7 7 8 8 8 8 8
3 3 4 4 5 5 5 5 5 5 4 4 4 5 5 4 3 3 3 3 3 2 2 4 2 3 3 3 5 7 7 7 7 7 8 8 8 9
3 3 3 3 3 3 4 5 5 7 7 5 6 6 5 4 4 4 4 4 5 3 2 4 3 4 4 4 7 8 8 8 8 7 7 7 7 8
3 4 4 4 4 3 4 4 4 5 6 6 6 7 6 5 5 5 5 5 5 3 3 4 3 3 4 4 6 8 8 8 9 9 8 7 7 7
4 4 4 4 5 4 3 4 5 5 5 5 6 6 6 6 5 3 3 3 4 3 2 3 2 3 3 4 4 6 8 8 9 9 9 8 8 6
3 4 5 5 5 4 4 4 6 6 5 4 4 5 5 5 5 5 5 5 4 3 2 2 2 2 2 2 2 3 4 5 7 7 8 8 7 4
4 4 5 6 7 6 5 5 7 6 4 4 4 4 4 4 4 4 5 5 5 5 3 2 2 2 2 3 3 3 3 2 3 3 5 7 7 6
5 5 5 7 7 7 5 6 6 5 3 3 3 4 4 4 4 4 5 6 6 6 5 4 3 3 3 3 3 3 2 2 2 2 2 3 4 6
5 6 6 6 5 5 6 6 4 3 3 3 4 4 4 4 4 3 3 3 3 4 4 4 4 4 4 4 3 3 3 3 2 2 2 2 2 2
4 4 4 4 3 3 3 3 2 3 3 4 4 4 3 3 3 2 2 2 2 3 2 2 3 4 4 4 4 4 3 2 2 3 2 2 2 3
2 1 1 1 2 2 2 2 2 2 3 3 3 4 3 3 3 2 2 2 2 3 3 2 2 2 3 3 3 3 3 3 3 2 2 2 3 3
2 2 2 2 3 3 3 3 3 3 3 3 3 3 3 3 3 2 2 2 3 3 3 2 1 1 1 1 2 3 2 2 1 1 1 2 3 3
2 2 3 3 3 3 3 3 3 3 2 2 3 3 3 3 3 2 2 3 3 3 2 2 1 1 1 3 2 1 2 2 1 1 1 1 2 3
2 3 3 3 3 3 3 2 2 2 1 2 2 2 2 2 2 3 3 3 2 2 2 2 2 2 2 2 1 2 2 1 1 1 1 1 2 3
2 3 3 3 3 3 3 2 2 2 2 2 2 2 2 2 2 3 3 3 2 2 3 3 2 2 1 1 0 1 2 1 0 1 1 1 2 2
3 3 3 3 3 3 2 2 2 2 2 2 2 2 2 2 2 2 2 2 2 2 3 2 0 1 1 1 1 0 1 2 2 3 2 1 2 1
3 3 3 3 3 2 2 2 2 3 3 3 2 2 2 2 2 2 2 2 2 1 1 1 0 1 0 1 1 1 1 1 1 2 3 4 3 1
Wind_Direction
235 231 236 248 239 232 222 214 221 272 284 288 298 301 298 275 280 274 270 275 265 259 257 258 254 249 243 240 235 230 228 228 225 227 229 232 233 235
249 241 248 250 244 238 224 211 205 222 259 275 274 293 300 298 293 277 271 278 270 261 255 253 254 249 243 239 233 228 227 227 225 229 232 233 234 233
271 251 261 254 247 241 225 215 213 208 246 277 267 286 295 306 314 298 280 275 278 271 260 252 252 250 246 241 235 230 228 227 227 231 233 233 233 232
266 255 261 253 257 251 236 231 229 217 222 263 281 285 279 297 304 304 305 293 284 283 271 261 255 254 251 246 242 234 230 229 230 233 235 235 233 234
240 236 245 230 261 259 247 243 241 235 221 240 273 278 279 296 304 307 311 306 298 294 285 270 260 257 255 249 244 238 233 230 231 233 236 239 239 237
236 231 236 232 241 248 246 243 244 247 238 245 265 279 278 286 290 300 309 308 299 303 298 283 270 264 260 251 245 236 229 230 233 231 233 236 237 237
250 249 251 254 256 248 246 239 233 240 244 247 258 269 274 281 286 284 286 298 287 273 289 287 281 274 265 249 239 234 227 231 236 234 233 236 237 238
259 265 267 267 275 267 252 238 229 230 237 241 252 257 264 263 265 268 274 288 288 270 272 281 270 268 273 255 242 235 232 234 236 235 234 235 235 236
253 264 275 281 284 275 271 267 256 249 239 230 244 253 257 255 256 264 258 259 266 276 258 274 269 268 274 263 245 238 236 235 231 234 237 237 235 235
252 251 261 281 280 274 271 274 271 266 257 244 239 249 253 249 239 245 256 266 271 264 234 262 272 269 283 272 253 242 235 230 231 234 236 237 237 236
265 262 263 271 276 270 260 270 280 281 272 260 254 256 260 258 247 240 248 259 275 270 228 242 269 284 283 271 259 242 235 233 236 236 235 236 236 233
278 272 267 266 268 255 243 253 265 272 280 286 280 281 274 270 255 235 233 244 263 266 224 222 251 274 286 273 269 269 258 246 236 233 234 235 231 224
270 274 271 272 266 257 244 246 251 254 260 264 271 278 279 275 269 257 239 233 243 253 236 217 244 248 252 280 289 278 268 259 248 246 235 230 221 209
262 271 272 267 260 257 252 257 256 248 250 259 268 273 276 280 280 273 258 245 243 249 243 219 233 233 248 267 275 276 277 270 257 250 248 225 216 212
261 266 270 265 258 255 257 259 251 239 241 253 264 268 267 267 273 278 273 262 258 262 254 228 231 237 238 250 256 263 281 278 252 244 249 245 241 229
264 276 275 268 260 264 272 267 251 238 237 249 262 270 272 270 270 270 268 282 281 292 288 262 240 227 243 251 249 262 263 244 249 258 250 246 242 234
256 282 318 317 301 299 286 276 261 247 246 249 255 265 270 272 275 275 264 264 265 277 294 309 300 254 247 244 247 254 260 261 253 242 239 255 260 247
216 245 260 262 264 271 277 273 260 256 250 248 254 257 262 264 271 278 271 265 268 270 277 287 304 321 326 315 240 245 267 275 283 275 256 247 268 272
219 244 250 254 263 274 274 268 262 262 253 245 248 253 261 264 262 262 263 270 276 273 272 276 270 258 293 307 323 285 265 278 284 304 290 265 273 287
241 246 252 255 259 266 271 275 279 285 277 262 262 262 261 262 266 266 260 262 267 278 270 262 253 244 240 260 283 326 319 250 250 264 284 292 290 287
267 260 256 257 259 261 264 263 266 270 279 270 270 273 271 260 260 261 260 251 250 267 265 268 271 241 220 155 176 327 349 9 287 249 250 271 290 292
277 271 265 258 255 256 258 259 268 273 276 276 285 288 289 273 262 258 255 254 256 269 279 281 266 139 138 180 201 311 358 15 35 48 31 250 246 252
268 264 261 258 252 250 251 260 268 275 273 270 272 281 288 285 272 258 254 255 256 275 299 300 3 70 83 155 154 128 81 43 29 28 19 24 35 38
Height
1520 1520 1520 1519 1519 1519 1519 1519 1519 1517 1516 1515 1515 1515 1514 1514 1513 1513 1513 1512 1512 1512 1512 1511 1511 1512 1512 1513 1513 1514 1514 1515 1515 1516 1517 1517 1518 1519
1517 1517 1516 1516 1516 1515 1515 1515 1515 1515 1513 1512 1512 1512 1512 1511 1510 1509 1509 1509 1509 1508 1508 1508 1508 1507 1508 1508 1509 1509 1510 1510 1511 1512 1513 1513 1514 1514
1514 1513 1513 1513 1512 1512 1512 1512 1511 1511 1510 1509 1510 1509 1508 1508 1507 1506 1506 1505 1505 1505 1505 1504 1504 1504 1504 1504 1504 1505 1505 1506 1507 1507 1508 1509 1509 1510
1511 1511 1510 1510 1509 1509 1508 1508 1508 1508 1507 1506 1506 1505 1505 1504 1503 1503 1503 1502 1502 1501 1501 1500 1500 1500 1500 1500 1500 1500 1501 1501 1502 1503 1504 1504 1505 1505
1508 1507 1507 1506 1506 1505 1505 1505 1505 1505 1504 1503 1502 1502 1501 1501 1500 1500 1499 1499 1498 1498 1497 1496 1496 1496 1495 1495 1496 1496 1496 1497 1497 1498 1499 1499 1500 1500
1505 1504 1504 1503 1503 1502 1502 1502 1502 1501 1501 1500 1499 1499 1498 1497 1497 1496 1495 1495 1494 1494 1493 1492 1492 1491 1491 1491 1491 1491 1492 1492 1493 1493 1494 1494 1495 1495
1502 1501 1501 1500 1500 1499 1499 1498 1498 1497 1497 1496 1496 1495 1494 1494 1493 1493 1492 1491 1491 1490 1490 1489 1488 1487 1487 1487 1486 1486 1487 1487 1488 1488 1489 1489 1490 1490
1499 1498 1497 1497 1496 1496 1495 1495 1494 1494 1493 1493 1492 1491 1491 1491 1490 1490 1489 1488 1487 1487 1486 1485 1484 1483 1483 1483 1482 1482 1482 1482 1483 1483 1484 1484 1485 1485
1495 1494 1494 1493 1492 1492 1491 1491 1490 1490 1490 1489 1488 1488 1487 1487 1487 1486 1485 1485 1484 1483 1482 1481 1480 1479 1479 1479 1479 1478 1478 1478 1478 1479 1479 1479 1480 1480
1491 1491 1490 1489 1488 1488 1487 1487 1486 1486 1486 1485 1485 1484 1484 1484 1483 1483 1482 1481 1480 1479 1479 1477 1476 1475 1475 1474 1474 1474 1474 1473 1474 1474 1475 1475 1475 1476
1488 1487 1486 1485 1485 1484 1483 1482 1482 1482 1482 1481 1481 1480 1480 1480 1479 1479 1478 1477 1475 1475 1474 1473 1472 1471 1470 1470 1470 1470 1470 1469 1469 1470 1470 1470 1471 1471
1483 1483 1482 1481 1481 1480 1479 1478 1478 1477 1477 1477 1476 1476 1475 1475 1475 1474 1473 1473 1471 1470 1470 1469 1468 1467 1466 1465 1465 1466 1465 1465 1465 1465 1465 1466 1466 1466
1479 1478 1478 1477 1476 1476 1475 1475 1474 1474 1473 1473 1472 1471 1471 1470 1470 1469 1469 1468 1467 1466 1466 1466 1464 1464 1463 1462 1461 1461 1461 1461 1461 1461 1461 1462 1462 1462
1475 1474 1473 1473 1472 1471 1471 1471 1470 1470 1469 1468 1468 1467 1466 1466 1465 1465 1464 1464 1463 1463 1462 1462 1461 1460 1459 1458 1457 1456 1457 1457 1457 1456 1457 1457 1458 1458
1471 1470 1469 1468 1468 1467 1467 1466 1466 1465 1465 1464 1463 1463 1462 1462 1461 1460 1460 1459 1459 1459 1458 1457 1457 1456 1455 1454 1453 1452 1452 1452 1452 1452 1452 1453 1453 1453
1467 1466 1465 1464 1464 1463 1462 1462 1461 1461 1460 1460 1459 1459 1458 1457 1457 1456 1456 1455 1455 1454 1454 1453 1453 1452 1451 1450 1449 1448 1448 1448 1448 1448 1448 1448 1449 1449
1462 1461 1460 1460 1459 1458 1457 1457 1457 1456 1456 1455 1455 1454 1454 1453 1453 1452 1451 1451 1451 1450 1449 1449 1449 1448 1447 1447 1445 1445 1444 1444 1445 1445 1445 1444 1445 1445
1458 1456 1456 1455 1454 1454 1453 1452 1452 1452 1451 1451 1451 1450 1450 1449 1449 1448 1448 1447 1447 1446 1446 1445 1445 1444 1444 1443 1443 1442 1441 1441 1441 1442 1442 1441 1441 1441
1453 1452 1452 1451 1451 1450 1449 1449 1448 1448 1448 1447 1447 1446 1446 1445 1445 1444 1444 1443 1443 1443 1443 1442 1441 1441 1440 1440 1440 1440 1439 1439 1438 1438 1438 1438 1438 1438
1449 1448 1448 1448 1447 1447 1446 1445 1445 1445 1444 1444 1443 1443 1442 1442 1441 1441 1440 1440 1439 1439 1439 1439 1439 1438 1438 1438 1437 1437 1437 1436 1436 1435 1435 1435 1435 1435
1446 1445 1445 1444 1444 1443 1443 1443 1442 1442 1441 1441 1440 1439 1439 1438 1438 1437 1437 1436 1436 1436 1435 1436 1436 1436 1436 1435 1435 1434 1435 1435 1434 1434 1433 1433 1433 1433
1443 1443 1442 1441 1441 1440 1440 1440 1440 1439 1439 1438 1437 1436 1436 1435 1434 1434 1434 1433 1433 1433 1433 1433 1433 1433 1433 1433 1432 1432 1432 1433 1433 1433 1432 1432 1431 1431
1441 1440 1440 1439 1438 1438 1437 1437 1437 1436 1436 1435 1434 1433 1433 1432 1432 1432 1431 1431 1431 1430 1430 1430 1430 1430 1430 1431 1431 1431 1431 1431 1431 1431 1431 1431 1431 1430